Torna al catalogo

COSMOS 2251 DEB

AttivoLEO
NORAD 34472·DEBRIS·🇷🇺 Russia

Lanciato Jun 16, 1993 da Plesetsk Cosmodrome

Loading…

Prossimi Passaggi (prossime 24 ore)

TLE

AggiornatoSource: Space-Track

Epoca: Sep 14, 2026, 10:21 UTC

1 34472U 93036TR  26257.43174651  .00000856  00000-0  66933-3 0  9993
2 34472  74.0850   4.4062 0328217  71.1893 292.4522 13.71001504875046

Traccia COSMOS 2251 DEB in tempo reale con AllMySat

Download on the App Store